Location: Bagnolo San Vito
(45.0833°N, 10.8833°E)
Time: 00:28:21
(UTC+00:00)

SAR-Lupe-4 - Pass Details

Date: 03 March 2021
Orbit: 481 x 485 km, 98.2° (Epoch: 26 March)

Event Time Altitude Azimuth Distance (km) Brightness Sun altitude
Rises 18:05:34 0° 15° (NNE) 2,553 7.1 -11.2°
Reaches altitude 10° 18:07:38 10° 18° (NNE) 1,669 6.1 -11.6°
Maximum altitude 18:11:13 71° 102° (ESE) 513 3.4 -12.2°
Drops below altitude 10° 18:14:46 10° 188° (S) 1,656 6.3 -12.8°
Sets 18:16:49 0° 190° (S) 2,531 7.3 -13.2°
